Location: Bruderhein
(53.8035°N, 112.9265°W)
Time: 12:38:34
(UTC+00:00)

deb Delta 139 - Pass Details

Date: 07 December 2023
Orbit: 731 x 794 km, 98.6° (Epoch: 01 March)

Event Time Altitude Azimuth Distance (km) Brightness Sun altitude
Rises 00:44:26 0° 146° (SSE) 3,255 ? -12.6°
Reaches altitude 10° 00:46:47 10° 142° (SE) 2,322 ? -12.9°
Maximum altitude 00:51:45 53° 67° (ENE) 938 ? -13.6°
Drops below altitude 10° 00:56:40 10° 351° (N) 2,297 ? -14.3°
Sets 00:58:59 0° 347° (NNW) 3,216 ? -14.6°
